Weather History for KFSW - December, 2013

Change the Weather History Date:

Sunday, December 8, 2013

  Actual Average Record
Temperature  
Mean Temperature 18 °F -  
Max Temperature 21 °F 39 °F 65 °F (1991)
Min Temperature 14 °F 22 °F -3 °F (1976)
Degree Days  
Heating Degree Days 48    
Moisture  
Dew Point 12 °F    
Average Humidity 74    
Maximum Humidity 93    
Minimum Humidity 49    
Precipitation  
Precipitation 0.00 in - - ()
Sea Level Pressure  
Sea Level Pressure 30.19 in    
Wind  
Wind Speed 8 mph (East)    
Max Wind Speed 14 mph    
Max Gust Speed 18 mph    
Visibility 6 miles    
Events Snow    
Averages and records for this station are not official NWS values.
T = Trace of Precipitation, MM = Missing Value Source: NWS Daily Summary

Daily Weather History Graph

Daily Weather History Graph

Search for Another Location

Airport or City:

Trip Planner

Search our weather history database for the weather conditions in past years. The results will help you decide how hot, cold, wet, or windy it might be!

Date:

Astronomy

Dec. 08, 2013 Rise Set
Actual Time 7:16 AM CST 4:37 PM CST
Civil Twilight 6:46 AM CST 5:08 PM CST
Nautical Twilight 6:11 AM CST 5:42 PM CST
Astronomical Twilight 5:38 AM CST 6:16 PM CST
Moon 11:35 AM CST (12/8) 11:29 PM CST (12/8)
Length of Visible Light 10h 22m
Length of Day
9h 21m
Waxing Crescent, 40% of the Moon is Illuminated
Dec 8
Waxing Crescent
Dec 9
First Quarter
Dec 17
Full
Dec 25
Last Quarter
Jan 1
New

Hourly Weather History & Observations

Time (CST) Temp. Windchill Dew Point Humidity Pressure Visibility Wind Dir Wind Speed Gust Speed Precip Events Conditions
12:15 AM 14.0 °F 2.9 °F 1.4 °F 57% 30.51 in 10.0 mi ENE 8.1 mph - N/A   Clear
12:35 AM 15.8 °F 5.1 °F 1.4 °F 53% 30.49 in 10.0 mi ENE 8.1 mph - N/A   Clear
12:55 AM 15.8 °F 6.1 °F -0.4 °F 49% 30.48 in 10.0 mi ENE 6.9 mph - N/A   Clear
1:15 AM 15.8 °F 6.1 °F 1.4 °F 53% 30.47 in 10.0 mi ENE 6.9 mph - N/A   Scattered Clouds
1:35 AM 15.8 °F 4.2 °F 1.4 °F 53% 30.46 in 10.0 mi ENE 9.2 mph - N/A   Mostly Cloudy
1:55 AM 15.8 °F 5.1 °F 1.4 °F 53% 30.45 in 10.0 mi ENE 8.1 mph - N/A   Mostly Cloudy
2:15 AM 15.8 °F 7.2 °F 1.4 °F 53% 30.46 in 10.0 mi East 5.8 mph - N/A   Overcast
2:35 AM 15.8 °F 4.2 °F 1.4 °F 53% 30.44 in 10.0 mi ENE 9.2 mph - N/A   Mostly Cloudy
2:55 AM 15.8 °F 3.4 °F 1.4 °F 53% 30.42 in 10.0 mi East 10.4 mph - N/A   Overcast
3:15 AM 15.8 °F 3.4 °F 1.4 °F 53% 30.40 in 10.0 mi East 10.4 mph - N/A   Overcast
3:35 AM 15.8 °F 2.7 °F 1.4 °F 53% 30.39 in 10.0 mi East 11.5 mph - N/A   Overcast
3:55 AM 15.8 °F 3.4 °F 1.4 °F 53% 30.40 in 10.0 mi East 10.4 mph - N/A   Overcast
4:15 AM 15.8 °F 5.1 °F 1.4 °F 53% 30.39 in 10.0 mi East 8.1 mph 16.1 mph N/A   Overcast
4:35 AM 15.8 °F 4.2 °F 3.2 °F 58% 30.38 in 10.0 mi ENE 9.2 mph - N/A   Overcast
4:55 AM 15.8 °F 7.2 °F 3.2 °F 58% 30.39 in 10.0 mi ENE 5.8 mph - N/A   Overcast
5:15 AM 15.8 °F 4.2 °F 3.2 °F 58% 30.36 in 10.0 mi East 9.2 mph - N/A   Overcast
5:35 AM 15.8 °F 5.1 °F 3.2 °F 58% 30.36 in 10.0 mi ENE 8.1 mph - N/A   Overcast
5:55 AM 15.8 °F 3.4 °F 3.2 °F 58% 30.34 in 10.0 mi ENE 10.4 mph - N/A   Overcast
6:15 AM 15.8 °F 2.7 °F 3.2 °F 58% 30.32 in 10.0 mi ENE 11.5 mph - N/A   Overcast
6:35 AM 17.6 °F 5.0 °F 3.2 °F 53% 30.32 in 10.0 mi ENE 11.5 mph - N/A   Overcast
6:55 AM 17.6 °F 4.3 °F 3.2 °F 53% 30.31 in 10.0 mi ENE 12.7 mph - N/A   Overcast
7:15 AM 17.6 °F 5.0 °F 3.2 °F 53% 30.30 in 10.0 mi East 11.5 mph 18.4 mph N/A Snow Light Snow
7:35 AM 17.6 °F 5.7 °F 5.0 °F 58% 30.28 in 10.0 mi East 10.4 mph - N/A Snow Light Snow
7:55 AM 17.6 °F 5.0 °F 5.0 °F 58% 30.27 in 5.0 mi ENE 11.5 mph - N/A Snow Light Snow
8:15 AM 17.6 °F 3.7 °F 6.8 °F 63% 30.26 in 3.0 mi ENE 13.8 mph - N/A Snow Light Snow
8:35 AM 17.6 °F 5.7 °F 8.6 °F 68% 30.26 in 2.5 mi East 10.4 mph 17.3 mph N/A Snow Light Snow
8:55 AM 17.6 °F 6.4 °F 8.6 °F 68% 30.25 in 4.0 mi East 9.2 mph - N/A Snow Light Snow
9:15 AM 17.6 °F 5.0 °F 8.6 °F 68% 30.24 in 10.0 mi East 11.5 mph 17.3 mph N/A Snow Light Snow
9:35 AM 19.4 °F 8.6 °F 10.4 °F 68% 30.25 in 10.0 mi East 9.2 mph - N/A   Overcast
9:55 AM 19.4 °F 7.9 °F 10.4 °F 68% 30.24 in 10.0 mi East 10.4 mph - N/A   Overcast
10:15 AM 19.4 °F 7.9 °F 12.2 °F 74% 30.24 in 0.8 mi ESE 10.4 mph - N/A Snow Light Snow
10:35 AM 19.4 °F 8.6 °F 12.2 °F 74% 30.23 in 2.0 mi East 9.2 mph - N/A Snow Light Snow
10:55 AM 19.4 °F 8.6 °F 12.2 °F 74% 30.21 in 2.0 mi East 9.2 mph - N/A Snow Light Snow
11:15 AM 19.4 °F 8.6 °F 15.8 °F 86% 30.19 in 1.8 mi East 9.2 mph - N/A Snow Light Snow
11:35 AM 19.4 °F 9.5 °F 15.8 °F 86% 30.17 in 2.0 mi East 8.1 mph - N/A Snow Light Snow
11:55 AM 21.2 °F 10.9 °F 15.8 °F 80% 30.14 in 2.5 mi East 9.2 mph - N/A Snow Light Snow
12:15 PM 21.2 °F 9.5 °F 15.8 °F 80% 30.12 in 3.0 mi East 11.5 mph - N/A Snow Light Snow
12:35 PM 21.2 °F 10.1 °F 15.8 °F 80% 30.11 in 4.0 mi East 10.4 mph - N/A   Haze
12:55 PM 21.2 °F 10.1 °F 15.8 °F 80% 30.08 in 5.0 mi East 10.4 mph - N/A   Haze
1:15 PM 21.2 °F 8.9 °F 15.8 °F 80% 30.06 in 2.5 mi East 12.7 mph - N/A   Haze
1:35 PM 21.2 °F 10.9 °F 15.8 °F 80% 30.06 in 2.0 mi East 9.2 mph - N/A   Haze
1:55 PM 21.2 °F 10.9 °F 17.6 °F 86% 30.06 in 1.0 mi East 9.2 mph - N/A Snow Light Snow
2:15 PM 21.2 °F 14.9 °F 17.6 °F 86% 30.06 in 0.8 mi East 4.6 mph - N/A Snow Light Snow
2:35 PM 21.2 °F 14.9 °F 17.6 °F 86% 30.04 in 1.2 mi East 4.6 mph - N/A Snow Light Snow
2:55 PM 21.2 °F 16.4 °F 17.6 °F 86% 30.03 in 5.0 mi East 3.5 mph - N/A Snow Light Snow
3:15 PM 21.2 °F 12.6 °F 17.6 °F 86% 30.03 in 10.0 mi East 6.9 mph - N/A   Overcast
3:35 PM 21.2 °F 13.6 °F 17.6 °F 86% 30.02 in 5.0 mi East 5.8 mph - N/A   Haze
3:55 PM 21.2 °F 14.9 °F 17.6 °F 86% 30.01 in 2.5 mi ENE 4.6 mph - N/A Snow Light Snow
4:15 PM 21.2 °F 16.4 °F 17.6 °F 86% 30.03 in 5.0 mi East 3.5 mph - N/A Snow Light Snow
4:35 PM 21.2 °F 16.4 °F 17.6 °F 86% 30.02 in 5.0 mi East 3.5 mph - N/A Snow Light Snow
4:55 PM 21.2 °F - 17.6 °F 86% 30.03 in 4.0 mi Calm Calm - N/A Snow Light Snow
5:15 PM 21.2 °F - 17.6 °F 86% 30.02 in 3.0 mi Calm Calm - N/A Snow Light Snow
5:35 PM 21.2 °F - 19.4 °F 93% 30.01 in 4.0 mi Calm Calm - N/A Snow Light Snow
5:55 PM 21.2 °F - 19.4 °F 93% 30.01 in 5.0 mi Calm Calm - N/A   Mostly Cloudy
6:15 PM 21.2 °F - 19.4 °F 93% 30.02 in 7.0 mi Calm Calm - N/A   Mostly Cloudy
6:35 PM 21.2 °F - 19.4 °F 93% 30.02 in 5.0 mi Calm Calm - N/A   Mostly Cloudy
6:55 PM 21.2 °F - 19.4 °F 93% 30.02 in 5.0 mi Calm Calm - N/A   Mostly Cloudy
7:15 PM 21.2 °F - 19.4 °F 93% 30.02 in 5.0 mi Calm Calm - N/A   Mostly Cloudy
7:35 PM 21.2 °F - 19.4 °F 93% 30.02 in 5.0 mi Calm Calm - N/A   Mostly Cloudy
7:55 PM 21.2 °F - 19.4 °F 93% 30.03 in 5.0 mi Calm Calm - N/A   Overcast
8:15 PM 21.2 °F - 19.4 °F 93% 30.03 in 5.0 mi Calm Calm - N/A   Overcast
8:35 PM 21.2 °F - 19.4 °F 93% 30.03 in 5.0 mi Calm Calm - N/A   Scattered Clouds
8:55 PM 21.2 °F - 19.4 °F 93% 30.02 in 5.0 mi Calm Calm - N/A   Mostly Cloudy
9:15 PM 21.2 °F 14.9 °F 19.4 °F 93% 30.03 in 4.0 mi WSW 4.6 mph - N/A   Overcast
9:35 PM 21.2 °F 14.9 °F 19.4 °F 93% 30.02 in 4.0 mi West 4.6 mph - N/A   Overcast
9:55 PM 21.2 °F 12.6 °F 19.4 °F 93% 30.03 in 5.0 mi WSW 6.9 mph - N/A   Overcast
10:15 PM 21.2 °F 13.6 °F 17.6 °F 86% 30.04 in 7.0 mi West 5.8 mph - N/A   Overcast
10:35 PM 21.2 °F 13.6 °F 17.6 °F 86% 30.04 in 7.0 mi West 5.8 mph - N/A Snow Light Snow
10:55 PM 21.2 °F 11.7 °F 17.6 °F 86% 30.04 in 5.0 mi West 8.1 mph - N/A Snow Light Snow
11:15 PM 21.2 °F 10.1 °F 17.6 °F 86% 30.04 in 3.0 mi West 10.4 mph - N/A Snow Light Snow
11:35 PM 21.2 °F 10.1 °F 17.6 °F 86% 30.04 in 7.0 mi West 10.4 mph - N/A Snow Light Snow
11:55 PM 21.2 °F 9.5 °F 15.8 °F 80% 30.05 in 5.0 mi West 11.5 mph - N/A Snow Light Snow